This is the latest recevied weather packets stored in our database for station/object KJ7HSW. If no packets are shown the sender has not sent any weather packets the latest 10 day(s).
| Time | Temp. | Humidity | Pressure | Rain* | Wind** | Luminosity | Snow |
|---|---|---|---|---|---|---|---|
| 1777999483 | 17.78° C | 64% | 1014.8 hPa | 0 mm | - | 563 W/m² | - |
| 1777999181 | 17.78° C | 65% | 1014.8 hPa | 0 mm | - | 549 W/m² | - |
| 1777998879 | 17.78° C | 67% | 1014.9 hPa | 0 mm | - | 537 W/m² | - |
| 1777998578 | 17.22° C | 67% | 1014.9 hPa | 0 mm | - | 522 W/m² | - |
| 1777998274 | 16.67° C | 69% | 1015 hPa | 0 mm | - | 511 W/m² | - |
| 1777997970 | 16.67° C | 68% | 1014.9 hPa | 0 mm | - | 499 W/m² | - |
| 1777997667 | 16.67° C | 70% | 1014.9 hPa | 0 mm | - | 488 W/m² | - |
| 1777997365 | 16.67° C | 70% | 1014.8 hPa | 0 mm | - | 484 W/m² | - |
| 1777997063 | 16.11° C | 70% | 1014.8 hPa | 0 mm | - | 461 W/m² | - |
| 1777996759 | 16.11° C | 71% | 1014.8 hPa | 0 mm | - | 441 W/m² | - |
| 1777996455 | 15.56° C | 73% | 1015 hPa | 0 mm | - | 426 W/m² | - |
| 1777996152 | 15° C | 75% | 1014.7 hPa | 0 mm | - | 406 W/m² | - |
| 1777995848 | 15° C | 75% | 1014.8 hPa | 0 mm | - | 368 W/m² | - |
| 1777995545 | 15° C | 75% | 1014.9 hPa | 0 mm | - | 303 W/m² | - |
| 1777995242 | 14.44° C | 75% | 1014.9 hPa | 0 mm | - | 266 W/m² | - |
| 1777994939 | 14.44° C | 78% | 1014.7 hPa | 0 mm | - | 249 W/m² | - |
| 1777994635 | 13.33° C | 81% | 1014.9 hPa | 0 mm | - | 191 W/m² | - |
| 1777994330 | 13.33° C | 82% | 1014.8 hPa | 0 mm | - | 58 W/m² | - |
| 1777994027 | 12.78° C | 82% | 1014.9 hPa | 0 mm | - | 56 W/m² | - |
| 1777993723 | 12.78° C | 83% | 1014.9 hPa | 0 mm | - | 54 W/m² | - |
| 1777993421 | 12.78° C | 83% | 1014.7 hPa | 0 mm | - | 52 W/m² | - |
| 1777993115 | 12.22° C | 83% | 1014.6 hPa | 0 mm | - | 51 W/m² | - |
| 1777992814 | 12.22° C | 85% | 1014.7 hPa | 0 mm | - | 49 W/m² | - |
| 1777992511 | 11.67° C | 85% | 1014.5 hPa | 0 mm | - | 48 W/m² | - |
| 1777992209 | 11.67° C | 86% | 1014.6 hPa | 0 mm | - | 46 W/m² | - |
* Rain latest hour (hover to see other rain measurements)
** Current wind speed in m/s (hover to see current wind gust speed)